TimeEDT,TemperatureF,Dew PointF,Humidity,Sea Level PressureIn,VisibilityMPH,Wind Direction,Wind SpeedMPH,Gust SpeedMPH,PrecipitationIn,Events,Conditions,WindDirDegrees,DateUTC
12:56 AM,68.0,55.0,63,30.04,10.0,North,3.5,-,N/A,,Partly Cloudy,350,2013-08-11 04:56:00
1:56 AM,66.0,55.0,68,30.04,10.0,North,3.5,-,N/A,,Clear,360,2013-08-11 05:56:00
2:56 AM,64.0,54.0,70,30.05,10.0,North,5.8,-,N/A,,Clear,350,2013-08-11 06:56:00
3:56 AM,62.1,53.1,72,30.06,10.0,North,5.8,-,N/A,,Clear,350,2013-08-11 07:56:00
4:56 AM,62.1,51.1,67,30.07,10.0,NNW,4.6,-,N/A,,Clear,340,2013-08-11 08:56:00
5:56 AM,61.0,50.0,67,30.09,10.0,NNW,5.8,-,N/A,,Scattered Clouds,340,2013-08-11 09:56:00
6:56 AM,64.0,52.0,65,30.09,10.0,NNW,4.6,-,N/A,,Scattered Clouds,330,2013-08-11 10:56:00
7:56 AM,68.0,53.1,59,30.10,10.0,North,9.2,-,N/A,,Partly Cloudy,350,2013-08-11 11:56:00
8:56 AM,70.0,53.1,55,30.10,10.0,NNW,9.2,-,N/A,,Partly Cloudy,340,2013-08-11 12:56:00
9:56 AM,72.0,52.0,49,30.10,10.0,North,5.8,-,N/A,,Partly Cloudy,360,2013-08-11 13:56:00
10:56 AM,75.0,52.0,44,30.10,10.0,NNW,6.9,-,N/A,,Partly Cloudy,330,2013-08-11 14:56:00
11:56 AM,77.0,48.9,37,30.09,10.0,NNW,6.9,-,N/A,,Scattered Clouds,340,2013-08-11 15:56:00
12:56 PM,78.1,46.0,32,30.09,10.0,WNW,8.1,-,N/A,,Scattered Clouds,290,2013-08-11 16:56:00
1:56 PM,80.1,48.9,34,30.06,10.0,NW,6.9,-,N/A,,Mostly Cloudy,320,2013-08-11 17:56:00
2:56 PM,81.0,53.1,38,30.06,10.0,WNW,8.1,-,N/A,,Mostly Cloudy,290,2013-08-11 18:56:00
3:56 PM,79.0,55.0,44,30.04,10.0,SW,5.8,-,N/A,,Mostly Cloudy,220,2013-08-11 19:56:00
4:56 PM,78.1,55.0,45,30.04,10.0,Variable,6.9,-,N/A,,Mostly Cloudy,0,2013-08-11 20:56:00
5:56 PM,75.9,55.9,50,30.03,10.0,SSW,8.1,-,N/A,,Mostly Cloudy,210,2013-08-11 21:56:00
6:56 PM,73.9,55.9,53,30.03,10.0,South,6.9,-,N/A,,Overcast,190,2013-08-11 22:56:00
7:56 PM,73.0,59.0,61,30.03,10.0,SSW,6.9,-,N/A,,Mostly Cloudy,200,2013-08-11 23:56:00
8:56 PM,73.0,60.1,64,30.05,10.0,SW,8.1,-,N/A,,Overcast,220,2013-08-12 00:56:00
9:56 PM,73.0,60.1,64,30.06,10.0,SW,6.9,-,N/A,,Overcast,220,2013-08-12 01:56:00
10:56 PM,72.0,60.1,66,30.04,10.0,SSW,8.1,-,N/A,,Mostly Cloudy,210,2013-08-12 02:56:00
11:56 PM,72.0,62.1,71,30.03,10.0,SSW,3.5,-,N/A,,Overcast,200,2013-08-12 03:56:00